Simultaneous Nadir Overpasses (SNOs) Predictions

Prediction of SNOs between AQUA and METOP-C Satellite Orbit:

Table of predicted SNOs for the next 14.0 days since TLE Epoch: 1/17/2020
Index Date (AQUA) Time (AQUA) Lat,Lon (AQUA) SZA (AQUA ) Date (METOP-C) Time (METOP-C) Lat,Lon (METOP-C) SZA (METOP-C ) Distance(km) Time Diff (sec)
1 01/18/2020 02:19:38 -73.71, -40.48 85.56 01/18/2020 02:18:36 -73.71, -40.42 85.55 1.97 62
2 01/18/2020 03:09:07 73.78, 127.01 94.51 01/18/2020 03:09:13 73.79, 127.10 94.52 3.15 6
3 01/18/2020 03:58:39 -74.12, -66.12 85.13 01/18/2020 03:59:49 -74.09, -64.83 85.22 39.27 70
4 01/20/2020 21:53:43 -73.17, 27.09 86.72 01/20/2020 21:52:35 -73.15, 24.85 86.64 72.13 68
5 01/20/2020 22:43:21 73.72,-166.42 93.86 01/20/2020 22:43:02 73.71,-166.52 93.87 3.35 19
6 01/20/2020 23:32:48 -73.79, 1.06 86.07 01/20/2020 23:33:43 -73.78, 0.96 86.08 3.22 55
7 01/23/2020 18:17:37 73.71, -99.97 93.23 01/23/2020 18:16:51 73.69,-100.03 93.21 3.26 46
8 01/23/2020 19:07:04 -73.78, 67.52 86.71 01/23/2020 19:07:32 -73.76, 67.47 86.73 2.43 28
9 01/26/2020 13:51:52 73.66, -33.42 92.49 01/26/2020 13:50:40 73.66, -33.53 92.51 3.48 72
10 01/26/2020 14:41:20 -73.77, 133.97 87.40 01/26/2020 14:41:21 -73.74, 133.98 87.43 3.33 1
11 01/26/2020 15:30:48 73.81, -58.48 92.64 01/26/2020 15:31:58 73.80, -58.55 92.62 2.79 70
12 01/29/2020 10:15:34 -73.72,-159.48 88.18 01/29/2020 10:15:09 -73.73,-159.51 88.17 1.05 25
13 01/29/2020 11:05:02 73.77, 8.06 91.87 01/29/2020 11:05:46 73.77, 7.95 91.87 3.60 44




NCC Satellite Simultaneous Nadir Overpasses (SNOs) Prediction Service
